Poplar Bluff, MO

9:33 PM CDT on March 24, 2017 (GMT -0500)
Poplar Bluff Municipal

Weather History for KPOF - January, 2012

Change the Weather History Date:

Friday, January 13, 2012

  Actual Average Record
Temperature  
Mean Temperature 30 °F -  
Max Temperature 36 °F 38 °F 70 °F (1928)
Min Temperature 24 °F 20 °F -18 °F (1918)
Degree Days  
Heating Degree Days 35    
Moisture  
Dew Point 12 °F    
Average Humidity 51    
Maximum Humidity 69    
Minimum Humidity 37    
Precipitation  
Precipitation 0.00 in - - ()
Sea Level Pressure  
Sea Level Pressure 30.12 in    
Wind  
Wind Speed 8 mph (West)    
Max Wind Speed 12 mph    
Max Gust Speed 21 mph    
Visibility 10 miles    
Events      
Averages and records for this station are not official NWS values.
T = Trace of Precipitation, MM = Missing Value Source: NWS Daily Summary

Daily Weather History Graph

Daily Weather History Graph

Search for Another Location

Airport or City:

Trip Planner

Search our weather history database for the weather conditions in past years. The results will help you decide how hot, cold, wet, or windy it might be!

Date:

Astronomy

Jan. 13, 2012 Rise Set
Actual Time 7:13 AM CST 5:06 PM CST
Civil Twilight 6:45 AM CST 5:34 PM CST
Nautical Twilight 6:13 AM CST 6:06 PM CST
Astronomical Twilight 5:42 AM CST 6:37 PM CST
Moon 10:09 PM CST (1/13) 9:36 AM CST (1/13)
Length of Visible Light 10h 49m
Length of Day
9h 52m
Waning Gibbous, 78% of the Moon is Illuminated
Jan 13
Waning Gibbous
Jan 16
Last Quarter
Jan 23
New
Jan 30
First Quarter
Feb 7
Full

Hourly Weather History & Observations

Time (CST) Temp. Windchill Dew Point Humidity Pressure Visibility Wind Dir Wind Speed Gust Speed Precip Events Conditions
12:53 AM 26.1 °F 16.8 °F 14.0 °F 60% 30.01 in 10.0 mi WNW 9.2 mph 17.3 mph 0.00 in   Overcast
1:53 AM 26.1 °F 16.8 °F 12.0 °F 55% 30.03 in 10.0 mi WNW 9.2 mph 20.7 mph N/A   Overcast
2:53 AM 26.1 °F 17.6 °F 12.9 °F 58% 30.04 in 10.0 mi WNW 8.1 mph - N/A   Overcast
3:53 AM 26.1 °F 17.6 °F 12.0 °F 55% 30.04 in 10.0 mi WNW 8.1 mph - N/A   Overcast
4:53 AM 24.1 °F 18.2 °F 12.0 °F 60% 30.06 in 10.0 mi SW 4.6 mph - N/A   Clear
5:53 AM 24.1 °F 18.2 °F 12.0 °F 60% 30.07 in 10.0 mi WSW 4.6 mph - N/A   Clear
6:53 AM 24.1 °F 16.0 °F 12.0 °F 60% 30.09 in 10.0 mi WSW 6.9 mph - N/A   Clear
7:53 AM 24.1 °F 16.0 °F 12.0 °F 60% 30.11 in 10.0 mi WSW 6.9 mph - N/A   Clear
8:53 AM 26.1 °F 16.2 °F 12.0 °F 55% 30.13 in 10.0 mi WSW 10.4 mph - N/A   Clear
9:53 AM 27.0 °F 16.7 °F 12.0 °F 53% 30.15 in 10.0 mi West 11.5 mph - N/A   Clear
10:53 AM 30.0 °F 21.1 °F 14.0 °F 51% 30.15 in 10.0 mi WNW 10.4 mph - N/A   Clear
11:53 AM 32.0 °F 24.8 °F 14.0 °F 48% 30.13 in 10.0 mi West 8.1 mph - N/A   Clear
12:53 PM 35.1 °F 27.4 °F 14.0 °F 42% 30.12 in 10.0 mi WSW 10.4 mph - N/A   Clear
1:53 PM 36.0 °F 28.0 °F 15.1 °F 43% 30.11 in 10.0 mi WSW 11.5 mph - N/A   Clear
3:53 PM 35.1 °F 26.9 °F 12.9 °F 40% 30.13 in 10.0 mi WSW 11.5 mph 18.4 mph N/A   Clear
4:53 PM 33.1 °F 26.1 °F 10.9 °F 40% 30.15 in 10.0 mi WSW 8.1 mph - N/A   Clear
5:53 PM 32.0 °F 25.6 °F 10.0 °F 40% 30.17 in 10.0 mi West 6.9 mph - N/A   Clear
6:53 PM 32.0 °F 24.8 °F 8.1 °F 37% 30.18 in 10.0 mi West 8.1 mph - N/A   Clear
7:53 PM 30.9 °F 27.5 °F 8.1 °F 38% 30.19 in 10.0 mi WSW 3.5 mph - N/A   Clear
9:53 PM 28.0 °F 22.8 °F 10.0 °F 47% 30.20 in 10.0 mi WSW 4.6 mph - N/A   Clear
10:53 PM 28.9 °F 25.2 °F 9.0 °F 43% 30.20 in 10.0 mi WNW 3.5 mph - N/A   Clear
11:53 PM 25.0 °F 20.7 °F 16.0 °F 69% 30.19 in 10.0 mi SSW 3.5 mph - N/A   Clear